Location: Fort Worth, Tx
(32.7431°N, 97.3695°W)
Time: 06:10:50
(UTC-05:00)

Altair - Pass Details

Date: 11 October 2023
Orbit: 1501 x 1682 km, 47.2° (Epoch: 06 December)

Event Time Altitude Azimuth Distance (km) Brightness Sun altitude
Rises 02:08:21 0° 251° (WSW) 4,674 - -64.1°
Reaches altitude 10° 02:11:28 10° 256° (WSW) 3,713 - -64.2°
Maximum altitude 02:20:39 55° 333° (NNW) 1,855 - -64.2°
Drops below altitude 10° 02:30:14 10° 50° (NE) 3,862 - -64.0°
Exits shadow 02:31:16 - 51° (NE) 4,170 10.0 -64.0°
Sets 02:33:33 0° 55° (NE) 4,872 10.4 -63.9°
